Location: Houhaj�rvi
(61.2833°N, 23.0000°E)
Time: 14:39:45
(UTC+00:00)

Cosmos 2369 Rocket - Pass Details

Date: 27 February 2020
Orbit: 827 x 854 km, 71.0° (Epoch: 07 April)

Event Time Altitude Azimuth Distance (km) Brightness Sun altitude
Rises 20:44:19 0° 285° (WNW) 3,420 6.0 -32.8°
Reaches altitude 10° 20:47:03 10° 295° (WNW) 2,488 5.3 -33.0°
Maximum altitude 20:52:08 32° 358° (N) 1,448 3.8 -33.3°
Enters shadow 20:54:09 25° 33° (NNE) 1,657 3.9 -33.5°
